| time (UTC) | temp F | wind direction | speed knots | gust knots | rain 1hr in | rain 24hr in | rain mn in | humidity % | barometer mb |
| 20260508194514 | 66 | 263 | 2.6 | 6.1 | 0.00 | 0.00 | 0.00 | 48 | 1016.3 |
| 20260508193514 | 67 | 243 | 2.6 | 5.2 | 0.00 | 0.00 | 0.00 | 47 | 1016.3 |
| 20260508192514 | 66 | 258 | 1.7 | 5.2 | 0.00 | 0.00 | 0.00 | 48 | 1016.6 |
| 20260508191534 | 67 | 247 | 1.7 | 7.0 | 0.00 | 0.00 | 0.00 | 48 | 1016.6 |
| 20260508190514 | 67 | 289 | 0.9 | 6.1 | 0.00 | 0.00 | 0.00 | 47 | 1016.6 |
| 20260508185514 | 67 | 239 | 2.6 | 5.2 | 0.00 | 0.00 | 0.00 | 45 | 1016.8 |
| 20260508184514 | 67 | 265 | 1.7 | 4.3 | 0.00 | 0.00 | 0.00 | 46 | 1016.8 |
| 20260508183514 | 67 | 257 | 1.7 | 3.5 | 0.00 | 0.00 | 0.00 | 47 | 1017.0 |
| 20260508182514 | 66 | 317 | 0.9 | 2.6 | 0.00 | 0.00 | 0.00 | 48 | 1017.0 |
| 20260508181514 | 67 | 243 | 1.7 | 7.8 | 0.00 | 0.00 | 0.00 | 44 | 1017.2 |
| 20260508180514 | 67 | 28 | 1.7 | 5.2 | 0.00 | 0.00 | 0.00 | 46 | 1017.3 |
| 20260508175614 | 66 | 272 | 1.7 | 3.5 | 0.00 | 0.00 | 0.00 | 43 | 1017.4 |
| 20260508174514 | 66 | 258 | 1.7 | 5.2 | 0.00 | 0.00 | 0.00 | 41 | 1017.2 |
| 20260508173514 | 66 | 261 | 2.6 | 6.1 | 0.00 | 0.00 | 0.00 | 41 | 1017.5 |
| 20260508172514 | 66 | 245 | 0.9 | 3.5 | 0.00 | 0.00 | 0.00 | 43 | 1017.7 |
| 20260508171514 | 66 | 246 | 1.7 | 5.2 | 0.00 | 0.00 | 0.00 | 42 | 1017.8 |
| 20260508170514 | 65 | 36 | 1.7 | 4.3 | 0.00 | 0.00 | 0.00 | 42 | 1017.9 |
| 20260508165534 | 65 | 316 | 0.9 | 2.6 | 0.00 | 0.00 | 0.00 | 41 | 1017.9 |
| 20260508164514 | 64 | 37 | 0.9 | 2.6 | 0.00 | 0.00 | 0.00 | 43 | 1018.1 |
| 20260508163534 | 63 | 37 | 0.9 | 2.6 | 0.00 | 0.00 | 0.00 | 40 | 1018.0 |
| 20260508162534 | 62 | 272 | 1.7 | 5.2 | 0.00 | 0.00 | 0.00 | 43 | 1018.1 |
| 20260508161514 | 61 | 323 | 0.9 | 1.7 | 0.00 | 0.00 | 0.00 | 43 | 1018.2 |
| 20260508160514 | 60 | 240 | 0.9 | 2.6 | 0.00 | 0.00 | 0.00 | 44 | 1018.2 |
| 20260508155534 | 59 | 249 | 0.9 | 2.6 | 0.00 | 0.00 | 0.00 | 47 | 1018.4 |
| 20260508154514 | 58 | 214 | 0.9 | 1.7 | 0.00 | 0.00 | 0.00 | 47 | 1018.3 |
| 20260508153534 | 57 | 217 | 0.9 | 2.6 | 0.00 | 0.00 | 0.00 | 45 | 1018.3 |
| 20260508152514 | 55 | 240 | 0.9 | 2.6 | 0.00 | 0.00 | 0.00 | 53 | 1018.3 |
| 20260508151514 | 53 | 239 | 0.0 | 1.7 | 0.00 | 0.00 | 0.00 | 53 | 1018.1 |
| 20260508150514 | 52 | 217 | 0.9 | 1.7 | 0.00 | 0.00 | 0.00 | 58 | 1018.1 |
| 20260508145534 | 51 | 208 | 0.0 | 2.6 | 0.00 | 0.00 | 0.00 | 59 | 1018.1 |
| 20260508144514 | 50 | 207 | 0.9 | 1.7 | 0.00 | 0.00 | 0.00 | 59 | 1018.1 |
| 20260508143514 | 49 | 207 | 0.0 | 1.7 | 0.00 | 0.00 | 0.00 | 59 | 1018.1 |
| 20260508142514 | 48 | 182 | 0.0 | 0.9 | 0.00 | 0.00 | 0.00 | 58 | 1018.0 |
| 20260508141534 | 48 | 0.0 | 1.7 | 0.00 | 0.00 | 0.00 | 66 | 1018.1 | |
| 20260508140514 | 46 | 182 | 0.0 | 1.7 | 0.00 | 0.00 | 0.00 | 71 | 1018.0 |
| 20260508135514 | 45 | 182 | 0.0 | 0.9 | 0.00 | 0.00 | 0.00 | 76 | 1017.9 |
| 20260508134516 | 45 | 182 | 0.0 | 1.7 | 0.00 | 0.00 | 0.00 | 83 | 1017.9 |
| 20260508133516 | 44 | 0.0 | 0.0 | 0.00 | 0.00 | 0.00 | 88 | 1017.9 | |
| 20260508132516 | 44 | 0.0 | 0.0 | 0.00 | 0.00 | 0.00 | 90 | 1017.8 | |
| 20260508131556 | 43 | 0.0 | 0.0 | 0.00 | 0.00 | 0.00 | 91 | 1017.6 | |
| 20260508130516 | 43 | 0.0 | 0.0 | 0.00 | 0.00 | 0.00 | 91 | 1017.8 | |
| 20260508125516 | 42 | 0.0 | 0.0 | 0.00 | 0.00 | 0.00 | 92 | 1017.7 | |
| 20260508124516 | 42 | 0.0 | 0.0 | 0.00 | 0.00 | 0.00 | 92 | 1017.7 | |
| 20260508123516 | 42 | 0.0 | 0.0 | 0.00 | 0.00 | 0.00 | 91 | 1017.7 | |
| 20260508122515 | 41 | 0.0 | 0.0 | 0.00 | 0.00 | 0.00 | 92 | 1017.6 | |
| 20260508121515 | 41 | 0.0 | 0.0 | 0.00 | 0.00 | 0.00 | 91 | 1017.5 | |
| 20260508120516 | 40 | 0.0 | 0.0 | 0.00 | 0.00 | 0.00 | 91 | 1017.5 | |
| 20260508115516 | 40 | 0.0 | 0.0 | 0.00 | 0.01 | 0.00 | 91 | 1017.4 | |
| 20260508114516 | 40 | 0.0 | 0.0 | 0.00 | 0.01 | 0.00 | 91 | 1017.1 | |
| 20260508113516 | 39 | 0.0 | 0.0 | 0.00 | 0.01 | 0.00 | 90 | 1016.9 | |
| 20260508112515 | 39 | 0.0 | 0.0 | 0.00 | 0.02 | 0.00 | 90 | 1016.7 | |
| 20260508111515 | 39 | 0.0 | 0.0 | 0.00 | 0.02 | 0.00 | 89 | 1016.4 | |
| 20260508110515 | 40 | 0.0 | 0.0 | 0.00 | 0.02 | 0.00 | 90 | 1016.3 | |
| 20260508105515 | 40 | 0.0 | 0.0 | 0.00 | 0.03 | 0.00 | 89 | 1016.2 | |
| 20260508104515 | 40 | 0.0 | 0.0 | 0.00 | 0.03 | 0.00 | 89 | 1016.0 | |
| 20260508103516 | 40 | 0.0 | 0.0 | 0.00 | 0.03 | 0.00 | 89 | 1015.8 | |
| 20260508102516 | 41 | 0.0 | 0.0 | 0.00 | 0.04 | 0.00 | 89 | 1015.6 | |
| 20260508101515 | 41 | 0.0 | 0.0 | 0.00 | 0.05 | 0.00 | 89 | 1015.5 | |
| 20260508100515 | 41 | 0.0 | 0.0 | 0.00 | 0.05 | 0.00 | 89 | 1015.3 | |
| 20260508095515 | 41 | 0.0 | 0.0 | 0.00 | 0.06 | 0.00 | 89 | 1015.3 | |
| 20260508094515 | 42 | 0.0 | 0.0 | 0.00 | 0.06 | 0.00 | 89 | 1015.2 | |
| 20260508093535 | 42 | 0.0 | 0.0 | 0.00 | 0.06 | 0.00 | 89 | 1015.3 | |
| 20260508092535 | 42 | 0.0 | 0.0 | 0.00 | 0.06 | 0.00 | 89 | 1015.3 | |
| 20260508091515 | 43 | 0.0 | 0.0 | 0.00 | 0.06 | 0.00 | 89 | 1015.5 | |
| 20260508090515 | 43 | 0.0 | 0.0 | 0.00 | 0.06 | 0.00 | 89 | 1015.5 | |
| 20260508085515 | 43 | 0.0 | 0.0 | 0.00 | 0.06 | 0.00 | 90 | 1015.6 | |
| 20260508084515 | 43 | 0.0 | 0.0 | 0.00 | 0.06 | 0.00 | 90 | 1015.4 | |
| 20260508083515 | 43 | 0.0 | 0.0 | 0.00 | 0.06 | 0.00 | 90 | 1015.5 | |
| 20260508082515 | 44 | 0.0 | 0.0 | 0.00 | 0.06 | 0.00 | 90 | 1015.5 | |
| 20260508081515 | 44 | 0.0 | 0.0 | 0.00 | 0.06 | 0.00 | 90 | 1015.7 | |
| 20260508080515 | 44 | 0.0 | 0.0 | 0.00 | 0.06 | 0.00 | 90 | 1015.4 | |
| 20260508075515 | 44 | 0.0 | 0.9 | 0.00 | 0.06 | 0.00 | 90 | 1015.5 | |
| 20260508074515 | 44 | 0.0 | 1.7 | 0.00 | 0.06 | 0.00 | 90 | 1015.2 | |
| 20260508073515 | 44 | 182 | 0.0 | 1.7 | 0.00 | 0.06 | 0.00 | 90 | 1015.2 |
| 20260508072515 | 44 | 182 | 0.0 | 0.9 | 0.00 | 0.06 | 0.00 | 90 | 1015.2 |
| 20260508071515 | 45 | 182 | 0.0 | 1.7 | 0.00 | 0.06 | 0.00 | 90 | 1015.1 |
| 20260508070515 | 45 | 182 | 0.0 | 1.7 | 0.00 | 0.06 | 0.00 | 91 | 1015.1 |
| 20260508065515 | 44 | 182 | 0.0 | 1.7 | 0.00 | 0.06 | 0.00 | 91 | 1015.0 |
| 20260508064515 | 44 | 0.0 | 0.0 | 0.00 | 0.06 | 0.00 | 91 | 1015.2 | |
| 20260508063515 | 44 | 0.0 | 0.0 | 0.00 | 0.06 | 0.00 | 91 | 1015.2 | |
| 20260508062535 | 44 | 0.0 | 0.9 | 0.00 | 0.06 | 0.00 | 91 | 1015.5 | |
| 20260508061515 | 44 | 0.0 | 0.0 | 0.00 | 0.06 | 0.00 | 91 | 1015.6 | |
| 20260508060515 | 44 | 182 | 0.0 | 0.9 | 0.00 | 0.06 | 0.00 | 91 | 1015.6 |
| 20260508055515 | 44 | 182 | 0.0 | 0.9 | 0.00 | 0.06 | 0.00 | 90 | 1015.7 |
| 20260508054515 | 44 | 182 | 0.0 | 1.7 | 0.00 | 0.06 | 0.00 | 90 | 1015.7 |
| 20260508053515 | 44 | 182 | 0.0 | 1.7 | 0.00 | 0.06 | 0.00 | 90 | 1015.6 |
| 20260508052515 | 44 | 182 | 0.0 | 0.9 | 0.00 | 0.06 | 0.00 | 90 | 1015.6 |
| 20260508051515 | 44 | 0.0 | 0.9 | 0.00 | 0.06 | 0.00 | 90 | 1015.6 | |
| 20260508050515 | 44 | 182 | 0.9 | 1.7 | 0.00 | 0.06 | 0.00 | 89 | 1015.6 |
| 20260508045515 | 44 | 0.0 | 0.0 | 0.00 | 0.06 | 0.00 | 89 | 1015.6 | |
| 20260508044515 | 44 | 182 | 0.0 | 0.9 | 0.00 | 0.06 | 0.00 | 89 | 1015.1 |
| 20260508043535 | 44 | 0.0 | 0.0 | 0.00 | 0.06 | 0.00 | 89 | 1015.1 | |
| 20260508042515 | 45 | 0.0 | 0.9 | 0.00 | 0.06 | 0.00 | 89 | 1015.2 | |
| 20260508041535 | 45 | 182 | 0.0 | 0.9 | 0.00 | 0.06 | 0.00 | 89 | 1015.1 |
| 20260508040515 | 45 | 182 | 0.0 | 1.7 | 0.00 | 0.06 | 0.00 | 89 | 1015.3 |
| 20260508035515 | 45 | 0.0 | 0.9 | 0.00 | 0.09 | 0.06 | 89 | 1015.4 | |
| 20260508034555 | 45 | 0.0 | 0.0 | 0.00 | 0.09 | 0.06 | 89 | 1015.4 | |
| 20260508033515 | 45 | 0.0 | 0.0 | 0.00 | 0.09 | 0.06 | 89 | 1015.3 | |
| 20260508032515 | 45 | 182 | 0.0 | 1.7 | 0.00 | 0.10 | 0.06 | 89 | 1015.3 |
| 20260508031515 | 45 | 0.0 | 0.0 | 0.00 | 0.10 | 0.06 | 88 | 1015.3 | |
| 20260508030515 | 46 | 0.0 | 0.0 | 0.00 | 0.10 | 0.06 | 88 | 1015.2 | |
| 20260508025516 | 46 | 0.0 | 0.0 | 0.00 | 0.10 | 0.06 | 88 | 1015.0 | |
| 20260508024516 | 46 | 0.0 | 0.0 | 0.00 | 0.10 | 0.06 | 88 | 1015.0 | |
| 20260508023555 | 46 | 0.0 | 0.0 | 0.00 | 0.10 | 0.06 | 88 | 1014.5 | |
| 20260508022515 | 46 | 0.0 | 0.0 | 0.00 | 0.10 | 0.06 | 87 | 1014.3 | |
| 20260508021515 | 46 | 0.0 | 0.0 | 0.00 | 0.10 | 0.06 | 86 | 1014.4 | |
| 20260508020515 | 47 | 0.0 | 0.0 | 0.00 | 0.10 | 0.06 | 86 | 1014.4 | |
| 20260508015515 | 47 | 0.0 | 0.0 | 0.00 | 0.10 | 0.06 | 86 | 1014.3 | |
| 20260508014515 | 47 | 0.0 | 0.0 | 0.00 | 0.11 | 0.06 | 86 | 1014.0 | |
| 20260508013515 | 48 | 0.0 | 0.0 | 0.00 | 0.11 | 0.06 | 85 | 1014.1 | |
| 20260508012515 | 48 | 0.0 | 0.0 | 0.00 | 0.12 | 0.06 | 85 | 1013.7 | |
| 20260508011515 | 48 | 0.0 | 0.9 | 0.00 | 0.13 | 0.06 | 84 | 1013.5 | |
| 20260508010515 | 49 | 182 | 0.9 | 1.7 | 0.00 | 0.13 | 0.06 | 83 | 1013.5 |
| 20260508005515 | 49 | 0.0 | 1.7 | 0.00 | 0.14 | 0.06 | 83 | 1013.4 | |
| 20260508004515 | 49 | 182 | 0.0 | 1.7 | 0.00 | 0.14 | 0.06 | 82 | 1013.3 |
| 20260508003555 | 50 | 182 | 0.9 | 1.7 | 0.00 | 0.14 | 0.06 | 81 | 1013.2 |
| 20260508002535 | 50 | 182 | 0.9 | 2.6 | 0.00 | 0.14 | 0.06 | 80 | 1013.1 |
| 20260508001515 | 51 | 183 | 1.7 | 2.6 | 0.00 | 0.14 | 0.06 | 78 | 1013.2 |
| 20260508000515 | 52 | 183 | 0.9 | 1.7 | 0.00 | 0.14 | 0.06 | 77 | 1013.2 |
| 20260507235515 | 52 | 183 | 0.9 | 1.7 | 0.00 | 0.14 | 0.06 | 77 | 1013.3 |
| 20260507234515 | 53 | 176 | 0.9 | 2.6 | 0.00 | 0.15 | 0.06 | 75 | 1013.3 |
| 20260507233535 | 53 | 173 | 0.9 | 1.7 | 0.00 | 0.15 | 0.06 | 76 | 1013.3 |
| 20260507232535 | 53 | 173 | 0.0 | 1.7 | 0.00 | 0.17 | 0.06 | 76 | 1013.3 |
| 20260507231515 | 53 | 173 | 0.0 | 1.7 | 0.00 | 0.18 | 0.06 | 75 | 1013.3 |
| 20260507230515 | 53 | 174 | 0.9 | 4.3 | 0.00 | 0.19 | 0.06 | 76 | 1013.3 |
| 20260507225515 | 53 | 143 | 0.9 | 2.6 | 0.00 | 0.19 | 0.06 | 77 | 1013.2 |
| 20260507224515 | 53 | 133 | 0.9 | 2.6 | 0.00 | 0.19 | 0.06 | 78 | 1013.2 |
| 20260507223535 | 53 | 132 | 0.9 | 2.6 | 0.00 | 0.20 | 0.06 | 78 | 1013.1 |
| 20260507222515 | 53 | 107 | 0.9 | 3.5 | 0.00 | 0.20 | 0.06 | 79 | 1013.1 |
| 20260507221515 | 53 | 297 | 0.9 | 2.6 | 0.00 | 0.20 | 0.06 | 78 | 1012.9 |
| 20260507220515 | 53 | 112 | 0.9 | 3.5 | 0.00 | 0.20 | 0.06 | 79 | 1012.8 |
| 20260507215515 | 53 | 123 | 0.9 | 4.3 | 0.00 | 0.20 | 0.06 | 78 | 1012.5 |
| 20260507214535 | 53 | 162 | 1.7 | 4.3 | 0.00 | 0.20 | 0.06 | 78 | 1012.4 |
| 20260507213515 | 54 | 156 | 0.9 | 3.5 | 0.00 | 0.20 | 0.06 | 78 | 1012.3 |
| 20260507212515 | 55 | 168 | 0.9 | 3.5 | 0.00 | 0.20 | 0.06 | 76 | 1012.2 |
| 20260507211515 | 56 | 179 | 1.7 | 4.3 | 0.00 | 0.20 | 0.06 | 75 | 1012.1 |
| 20260507210515 | 58 | 196 | 0.9 | 4.3 | 0.00 | 0.20 | 0.06 | 74 | 1012.1 |
| 20260507205535 | 59 | 167 | 1.7 | 3.5 | 0.00 | 0.20 | 0.06 | 74 | 1012.1 |
| 20260507204515 | 58 | 180 | 1.7 | 2.6 | 0.00 | 0.20 | 0.06 | 76 | 1011.7 |
| 20260507203515 | 59 | 162 | 1.7 | 4.3 | 0.00 | 0.20 | 0.06 | 73 | 1011.5 |
| 20260507202515 | 59 | 173 | 2.6 | 5.2 | 0.00 | 0.20 | 0.06 | 73 | 1011.7 |
| 20260507201515 | 60 | 174 | 2.6 | 4.3 | 0.00 | 0.20 | 0.06 | 73 | 1011.7 |
| 20260507200535 | 59 | 179 | 2.6 | 7.8 | 0.00 | 0.20 | 0.06 | 75 | 1011.7 |
| 20260507195515 | 58 | 175 | 0.9 | 3.5 | 0.00 | 0.20 | 0.06 | 79 | 1011.5 |